| time (UTC) | temp F | wind direction | speed MPH | gust MPH | rain 1hr in | rain 24hr in | rain mn in | humidity % | barometer mb |
| 20260831080308 | 69 | 157 | 6.0 | 8.0 | 0.00 | 0.00 | 0.00 | 96 | 1012.9 |
| 20260831075803 | 69 | 180 | 5.0 | 9.0 | 0.00 | 0.00 | 0.00 | 96 | 1012.9 |
| 20260831075258 | 69 | 157 | 7.0 | 8.0 | 0.00 | 0.00 | 0.00 | 96 | 1012.8 |
| 20260831074758 | 69 | 145 | 4.0 | 9.0 | 0.00 | 0.00 | 0.00 | 96 | 1012.8 |
| 20260831074252 | 69 | 158 | 7.0 | 7.0 | 0.00 | 0.00 | 0.00 | 96 | 1013.1 |
| 20260831073748 | 69 | 180 | 4.0 | 5.0 | 0.00 | 0.00 | 0.00 | 96 | 1013.1 |
| 20260831073246 | 69 | 146 | 5.0 | 6.0 | 0.00 | 0.00 | 0.00 | 96 | 1013.3 |
| 20260831072742 | 69 | 135 | 5.0 | 6.0 | 0.00 | 0.00 | 0.00 | 96 | 1013.1 |
| 20260831072238 | 69 | 157 | 3.0 | 5.0 | 0.00 | 0.00 | 0.00 | 96 | 1013.2 |
| 20260831071738 | 69 | 159 | 4.0 | 6.0 | 0.00 | 0.00 | 0.00 | 96 | 1013.2 |
| 20260831071232 | 69 | 141 | 5.0 | 7.0 | 0.00 | 0.00 | 0.00 | 96 | 1013.0 |
| 20260831070727 | 69 | 145 | 7.0 | 8.0 | 0.00 | 0.00 | 0.00 | 96 | 1013.2 |
| 20260831070221 | 69 | 144 | 6.0 | 8.0 | 0.00 | 0.00 | 0.00 | 96 | 1013.2 |
| 20260831065720 | 69 | 131 | 3.0 | 7.0 | 0.00 | 0.00 | 0.00 | 96 | 1013.3 |
| 20260831065219 | 69 | 131 | 5.0 | 7.0 | 0.00 | 0.00 | 0.00 | 96 | 1013.6 |
| 20260831064714 | 70 | 131 | 3.0 | 8.0 | 0.00 | 0.00 | 0.00 | 96 | 1013.3 |
| 20260831064209 | 70 | 137 | 4.0 | 6.0 | 0.00 | 0.00 | 0.00 | 96 | 1013.6 |
| 20260831063705 | 70 | 139 | 2.0 | 5.0 | 0.00 | 0.00 | 0.00 | 96 | 1014.1 |
| 20260831063200 | 71 | 150 | 2.0 | 4.0 | 0.00 | 0.00 | 0.00 | 96 | 1014.3 |
| 20260831062654 | 71 | 144 | 2.0 | 3.0 | 0.00 | 0.00 | 0.00 | 96 | 1014.4 |
| 20260831062148 | 71 | 198 | 1.0 | 3.0 | 0.00 | 0.00 | 0.00 | 96 | 1014.6 |
| 20260831061646 | 71 | 225 | 3.0 | 3.0 | 0.00 | 0.00 | 0.00 | 96 | 1014.7 |
| 20260831061142 | 71 | 234 | 1.0 | 4.0 | 0.00 | 0.00 | 0.00 | 96 | 1014.8 |
| 20260831060638 | 71 | 220 | 2.0 | 5.0 | 0.00 | 0.00 | 0.00 | 96 | 1014.8 |
| 20260831060132 | 71 | 259 | 3.0 | 4.0 | 0.00 | 0.00 | 0.00 | 96 | 1014.7 |
| 20260831055631 | 71 | 243 | 4.0 | 6.0 | 0.00 | 0.00 | 0.00 | 96 | 1014.8 |
| 20260831055127 | 71 | 244 | 6.0 | 6.0 | 0.00 | 0.00 | 0.00 | 96 | 1014.8 |
| 20260831054626 | 71 | 240 | 3.0 | 5.0 | 0.00 | 0.00 | 0.00 | 95 | 1014.7 |
| 20260831054126 | 71 | 275 | 2.0 | 4.0 | 0.00 | 0.00 | 0.00 | 95 | 1014.8 |
| 20260831053621 | 71 | 244 | 4.0 | 5.0 | 0.00 | 0.00 | 0.00 | 95 | 1014.6 |
| 20260831053120 | 71 | 252 | 4.0 | 6.0 | 0.00 | 0.00 | 0.00 | 95 | 1014.6 |
| 20260831052619 | 71 | 249 | 5.0 | 7.0 | 0.00 | 0.00 | 0.00 | 95 | 1014.5 |
| 20260831052118 | 71 | 274 | 3.0 | 7.0 | 0.00 | 0.00 | 0.00 | 95 | 1014.6 |
| 20260831051616 | 71 | 291 | 1.0 | 5.0 | 0.00 | 0.00 | 0.00 | 95 | 1014.5 |
| 20260831051115 | 71 | 246 | 3.0 | 6.0 | 0.00 | 0.00 | 0.00 | 95 | 1014.6 |
| 20260831050610 | 71 | 243 | 3.0 | 6.0 | 0.00 | 0.00 | 0.00 | 95 | 1014.6 |
| 20260831050109 | 71 | 245 | 5.0 | 5.0 | 0.00 | 0.00 | 0.00 | 95 | 1014.8 |
| 20260831045608 | 71 | 237 | 4.0 | 5.0 | 0.00 | 0.00 | 0.00 | 95 | 1014.6 |
| 20260831045103 | 71 | 221 | 2.0 | 4.0 | 0.00 | 0.00 | 0.00 | 95 | 1014.5 |
| 20260831044559 | 71 | 230 | 4.0 | 5.0 | 0.00 | 0.00 | 0.00 | 95 | 1014.5 |
| 20260831044054 | 71 | 263 | 3.0 | 5.0 | 0.00 | 0.00 | 0.00 | 95 | 1014.6 |
| 20260831043549 | 71 | 230 | 3.0 | 4.0 | 0.00 | 0.00 | 0.00 | 95 | 1014.5 |
| 20260831043045 | 71 | 257 | 3.0 | 4.0 | 0.00 | 0.00 | 0.00 | 94 | 1014.3 |
| 20260831042544 | 72 | 225 | 2.0 | 5.0 | 0.00 | 0.00 | 0.00 | 94 | 1014.4 |
| 20260831042039 | 72 | 197 | 2.0 | 4.0 | 0.00 | 0.00 | 0.00 | 94 | 1014.1 |
| 20260831041534 | 72 | 198 | 3.0 | 3.0 | 0.00 | 0.00 | 0.00 | 94 | 1014.0 |
| 20260831041027 | 72 | 199 | 4.0 | 4.0 | 0.00 | 0.00 | 0.00 | 94 | 1013.9 |
| 20260831040522 | 72 | 160 | 3.0 | 5.0 | 0.00 | 0.00 | 0.00 | 93 | 1013.8 |
| 20260831040022 | 72 | 173 | 2.0 | 5.0 | 0.00 | 0.00 | 0.00 | 93 | 1013.9 |
| 20260831035519 | 72 | 212 | 4.0 | 5.0 | 0.00 | 0.00 | 0.00 | 93 | 1013.9 |
| 20260831035014 | 72 | 222 | 3.0 | 5.0 | 0.00 | 0.00 | 0.00 | 94 | 1014.1 |
| 20260831034504 | 72 | 203 | 3.0 | 5.0 | 0.00 | 0.00 | 0.00 | 94 | 1014.5 |
| 20260831033959 | 72 | 210 | 3.0 | 5.0 | 0.00 | 0.00 | 0.00 | 93 | 1014.4 |
| 20260831033454 | 72 | 206 | 2.0 | 2.0 | 0.00 | 0.00 | 0.00 | 93 | 1014.3 |
| 20260831032950 | 72 | 198 | 1.0 | 3.0 | 0.00 | 0.00 | 0.00 | 93 | 1014.3 |
| 20260831032449 | 72 | 249 | 0.0 | 4.0 | 0.00 | 0.00 | 0.00 | 93 | 1014.5 |
| 20260831031945 | 72 | 180 | 0.0 | 2.0 | 0.00 | 0.00 | 0.00 | 93 | 1014.1 |
| 20260831031444 | 72 | 190 | 2.0 | 4.0 | 0.00 | 0.00 | 0.00 | 93 | 1013.9 |
| 20260831030943 | 72 | 176 | 2.0 | 3.0 | 0.00 | 0.00 | 0.00 | 93 | 1013.9 |
| 20260831030443 | 73 | 195 | 2.0 | 2.0 | 0.00 | 0.00 | 0.00 | 93 | 1013.9 |
| 20260831025941 | 73 | 203 | 0.0 | 3.0 | 0.00 | 0.00 | 0.00 | 93 | 1013.9 |
| 20260831025440 | 73 | 209 | 3.0 | 5.0 | 0.00 | 0.00 | 0.00 | 92 | 1013.8 |
| 20260831024936 | 73 | 172 | 2.0 | 4.0 | 0.00 | 0.00 | 0.00 | 92 | 1013.7 |
| 20260831024436 | 73 | 222 | 3.0 | 5.0 | 0.00 | 0.00 | 0.00 | 92 | 1013.6 |
| 20260831023931 | 73 | 196 | 3.0 | 5.0 | 0.00 | 0.00 | 0.00 | 91 | 1013.5 |
| 20260831023429 | 73 | 209 | 3.0 | 4.0 | 0.00 | 0.00 | 0.00 | 91 | 1013.7 |
| 20260831022925 | 73 | 199 | 4.0 | 5.0 | 0.00 | 0.00 | 0.00 | 91 | 1013.8 |
| 20260831022423 | 73 | 199 | 2.0 | 3.0 | 0.00 | 0.00 | 0.00 | 91 | 1013.7 |
| 20260831021917 | 73 | 261 | 0.0 | 1.0 | 0.00 | 0.00 | 0.00 | 90 | 1013.6 |
| 20260831021412 | 73 | 196 | 2.0 | 4.0 | 0.00 | 0.00 | 0.00 | 90 | 1013.5 |
| 20260831020908 | 73 | 188 | 0.0 | 3.0 | 0.00 | 0.00 | 0.00 | 91 | 1013.5 |
| 20260831020407 | 73 | 204 | 2.0 | 4.0 | 0.00 | 0.00 | 0.00 | 90 | 1013.6 |
| 20260831015902 | 73 | 200 | 4.0 | 4.0 | 0.00 | 0.00 | 0.00 | 91 | 1013.6 |
| 20260831015359 | 73 | 200 | 3.0 | 5.0 | 0.00 | 0.00 | 0.00 | 92 | 1013.6 |
| 20260831014858 | 73 | 195 | 2.0 | 4.0 | 0.00 | 0.00 | 0.00 | 91 | 1013.5 |
| 20260831014353 | 74 | 176 | 2.0 | 4.0 | 0.00 | 0.00 | 0.00 | 90 | 1013.3 |
| 20260831013849 | 74 | 139 | 2.0 | 3.0 | 0.00 | 0.00 | 0.00 | 90 | 1013.3 |
| 20260831013344 | 73 | 145 | 1.0 | 1.0 | 0.00 | 0.00 | 0.00 | 91 | 1013.4 |
| 20260831012838 | 73 | 99 | 0.0 | 2.0 | 0.00 | 0.00 | 0.00 | 90 | 1013.5 |
| 20260831012334 | 73 | 106 | 0.0 | 0.0 | 0.00 | 0.00 | 0.00 | 90 | 1013.4 |
| 20260831011834 | 74 | 255 | 1.0 | 3.0 | 0.00 | 0.00 | 0.00 | 89 | 1013.3 |
| 20260831011329 | 74 | 81 | 0.0 | 1.0 | 0.00 | 0.00 | 0.00 | 88 | 1013.5 |
| 20260831010825 | 74 | 6 | 0.0 | 0.0 | 0.00 | 0.00 | 0.00 | 88 | 1013.5 |
| 20260831010324 | 74 | 81 | 0.0 | 0.0 | 0.00 | 0.00 | 0.00 | 88 | 1013.6 |
| 20260831005820 | 75 | 15 | 0.0 | 2.0 | 0.00 | 0.00 | 0.00 | 87 | 1013.5 |
| 20260831005315 | 75 | 63 | 2.0 | 3.0 | 0.00 | 0.00 | 0.00 | 87 | 1013.3 |
| 20260831004810 | 75 | 75 | 0.0 | 3.0 | 0.00 | 0.00 | 0.00 | 86 | 1013.3 |
| 20260831004306 | 76 | 26 | 0.0 | 0.0 | 0.00 | 0.00 | 0.00 | 84 | 1013.1 |
| 20260831003801 | 76 | 19 | 2.0 | 2.0 | 0.00 | 0.00 | 0.00 | 83 | 1013.1 |
| 20260831003257 | 77 | 355 | 0.0 | 2.0 | 0.00 | 0.00 | 0.00 | 82 | 1012.9 |
| 20260831002751 | 77 | 215 | 0.0 | 2.0 | 0.00 | 0.00 | 0.00 | 81 | 1012.8 |
| 20260831002250 | 77 | 195 | 2.0 | 4.0 | 0.00 | 0.00 | 0.00 | 81 | 1012.7 |
| 20260831001746 | 78 | 229 | 2.0 | 4.0 | 0.00 | 0.00 | 0.00 | 80 | 1012.7 |
| 20260831001241 | 78 | 236 | 4.0 | 5.0 | 0.00 | 0.00 | 0.00 | 79 | 1012.7 |
| 20260831000738 | 79 | 183 | 3.0 | 7.0 | 0.00 | 0.00 | 0.00 | 78 | 1012.9 |
| 20260831000233 | 79 | 231 | 7.0 | 8.0 | 0.00 | 0.00 | 0.00 | 77 | 1012.8 |
| 20260830235732 | 79 | 212 | 3.0 | 6.0 | 0.00 | 0.00 | 0.00 | 77 | 1012.5 |
| 20260830235227 | 79 | 212 | 3.0 | 7.0 | 0.00 | 0.00 | 0.00 | 76 | 1012.6 |
| 20260830234722 | 79 | 210 | 4.0 | 9.0 | 0.00 | 0.00 | 0.00 | 77 | 1012.6 |
| 20260830234218 | 79 | 217 | 5.0 | 9.0 | 0.00 | 0.00 | 0.00 | 76 | 1012.6 |
| 20260830233713 | 80 | 212 | 4.0 | 5.0 | 0.00 | 0.00 | 0.00 | 75 | 1012.6 |
| 20260830233209 | 80 | 218 | 4.0 | 7.0 | 0.00 | 0.00 | 0.00 | 75 | 1012.7 |
| 20260830232704 | 80 | 221 | 2.0 | 5.0 | 0.00 | 0.00 | 0.00 | 76 | 1012.8 |
| 20260830232200 | 80 | 244 | 3.0 | 7.0 | 0.00 | 0.00 | 0.00 | 75 | 1012.8 |
| 20260830231656 | 80 | 235 | 3.0 | 7.0 | 0.00 | 0.00 | 0.00 | 74 | 1012.8 |
| 20260830231155 | 80 | 213 | 5.0 | 8.0 | 0.00 | 0.00 | 0.00 | 75 | 1012.5 |
| 20260830230650 | 81 | 268 | 5.0 | 5.0 | 0.00 | 0.00 | 0.00 | 74 | 1012.5 |
| 20260830230145 | 81 | 225 | 2.0 | 6.0 | 0.00 | 0.00 | 0.00 | 74 | 1012.4 |
| 20260830225640 | 81 | 257 | 4.0 | 4.0 | 0.00 | 0.00 | 0.00 | 73 | 1012.6 |
| 20260830225135 | 81 | 255 | 2.0 | 5.0 | 0.00 | 0.00 | 0.00 | 74 | 1012.4 |
| 20260830224634 | 81 | 261 | 6.0 | 10.0 | 0.00 | 0.00 | 0.00 | 74 | 1012.2 |
| 20260830224130 | 81 | 220 | 3.0 | 7.0 | 0.00 | 0.00 | 0.00 | 74 | 1012.1 |
| 20260830223627 | 81 | 208 | 5.0 | 7.0 | 0.00 | 0.00 | 0.00 | 74 | 1012.0 |
| 20260830223126 | 81 | 223 | 4.0 | 5.0 | 0.00 | 0.00 | 0.00 | 73 | 1011.8 |
| 20260830222620 | 81 | 254 | 2.0 | 5.0 | 0.00 | 0.00 | 0.00 | 73 | 1011.6 |
| 20260830222117 | 81 | 243 | 4.0 | 6.0 | 0.00 | 0.00 | 0.00 | 73 | 1011.7 |
| 20260830221612 | 82 | 261 | 2.0 | 5.0 | 0.00 | 0.00 | 0.00 | 72 | 1011.7 |
| 20260830221108 | 82 | 243 | 2.0 | 3.0 | 0.00 | 0.00 | 0.00 | 71 | 1011.6 |
| 20260830220603 | 81 | 219 | 4.0 | 7.0 | 0.00 | 0.00 | 0.00 | 72 | 1011.7 |
| 20260830220056 | 82 | 240 | 3.0 | 4.0 | 0.00 | 0.00 | 0.00 | 72 | 1012.0 |
| 20260830215555 | 82 | 263 | 3.0 | 4.0 | 0.00 | 0.00 | 0.00 | 72 | 1012.1 |
| 20260830215050 | 83 | 293 | 3.0 | 5.0 | 0.00 | 0.00 | 0.00 | 72 | 1012.3 |
| 20260830214545 | 83 | 243 | 0.0 | 5.0 | 0.00 | 0.00 | 0.00 | 72 | 1012.0 |
| 20260830214039 | 82 | 329 | 4.0 | 7.0 | 0.00 | 0.00 | 0.00 | 73 | 1012.1 |
| 20260830213534 | 82 | 229 | 5.0 | 5.0 | 0.00 | 0.00 | 0.00 | 72 | 1012.0 |
| 20260830213029 | 81 | 221 | 2.0 | 3.0 | 0.00 | 0.00 | 0.00 | 75 | 1012.0 |
| 20260830212525 | 81 | 251 | 0.0 | 3.0 | 0.00 | 0.00 | 0.00 | 73 | 1012.0 |
| 20260830212020 | 81 | 253 | 4.0 | 4.0 | 0.00 | 0.00 | 0.00 | 73 | 1011.7 |
| 20260830211515 | 81 | 259 | 2.0 | 3.0 | 0.00 | 0.00 | 0.00 | 74 | 1011.9 |
| 20260830211014 | 81 | 263 | 0.0 | 0.0 | 0.00 | 0.00 | 0.00 | 73 | 1011.9 |
| 20260830210514 | 80 | 279 | 0.0 | 3.0 | 0.00 | 0.00 | 0.00 | 74 | 1012.1 |
| 20260830210009 | 81 | 312 | 2.0 | 3.0 | 0.00 | 0.00 | 0.00 | 74 | 1012.1 |
| 20260830205506 | 80 | 289 | 3.0 | 3.0 | 0.00 | 0.00 | 0.00 | 74 | 1012.1 |
| 20260830205003 | 81 | 0 | 1.0 | 2.0 | 0.00 | 0.00 | 0.00 | 75 | 1011.8 |
| 20260830204501 | 80 | 247 | 3.0 | 3.0 | 0.00 | 0.00 | 0.00 | 75 | 1012.1 |
| 20260830203955 | 80 | 297 | 2.0 | 4.0 | 0.00 | 0.00 | 0.00 | 75 | 1012.1 |
| 20260830203452 | 80 | 238 | 3.0 | 4.0 | 0.00 | 0.00 | 0.00 | 76 | 1012.2 |
| 20260830202951 | 80 | 299 | 4.0 | 6.0 | 0.00 | 0.00 | 0.00 | 76 | 1012.4 |
| 20260830202446 | 80 | 279 | 3.0 | 7.0 | 0.00 | 0.00 | 0.00 | 76 | 1012.6 |
| 20260830201943 | 80 | 267 | 4.0 | 7.0 | 0.00 | 0.00 | 0.00 | 75 | 1012.6 |
| 20260830201441 | 80 | 223 | 4.0 | 9.0 | 0.00 | 0.00 | 0.00 | 75 | 1012.4 |
| 20260830200937 | 80 | 257 | 7.0 | 8.0 | 0.00 | 0.00 | 0.00 | 75 | 1012.7 |
| 20260830200436 | 80 | 255 | 5.0 | 8.0 | 0.00 | 0.00 | 0.00 | 74 | 1012.4 |
| 20260830195931 | 81 | 262 | 5.0 | 9.0 | 0.00 | 0.00 | 0.00 | 73 | 1012.6 |
| 20260830195427 | 81 | 228 | 4.0 | 7.0 | 0.00 | 0.00 | 0.00 | 74 | 1012.5 |
| 20260830194924 | 80 | 197 | 5.0 | 9.0 | 0.00 | 0.00 | 0.00 | 73 | 1012.4 |
| 20260830194419 | 80 | 220 | 3.0 | 4.0 | 0.00 | 0.00 | 0.00 | 74 | 1012.6 |
| 20260830193918 | 80 | 216 | 3.0 | 6.0 | 0.00 | 0.00 | 0.00 | 73 | 1012.9 |
| 20260830193417 | 80 | 206 | 1.0 | 5.0 | 0.00 | 0.00 | 0.00 | 73 | 1012.7 |
| 20260830192913 | 80 | 225 | 4.0 | 4.0 | 0.00 | 0.00 | 0.00 | 73 | 1012.8 |
| 20260830192408 | 80 | 197 | 3.0 | 5.0 | 0.00 | 0.00 | 0.00 | 73 | 1012.7 |
| 20260830191903 | 80 | 216 | 6.0 | 7.0 | 0.00 | 0.00 | 0.00 | 71 | 1012.8 |
| 20260830191403 | 80 | 239 | 7.0 | 8.0 | 0.00 | 0.00 | 0.00 | 72 | 1012.7 |
| 20260830190859 | 81 | 205 | 7.0 | 8.0 | 0.00 | 0.00 | 0.00 | 72 | 1012.8 |
| 20260830190354 | 81 | 219 | 3.0 | 8.0 | 0.00 | 0.00 | 0.00 | 72 | 1012.6 |
| 20260830185852 | 81 | 208 | 9.0 | 9.0 | 0.00 | 0.00 | 0.00 | 70 | 1012.9 |
| 20260830185348 | 81 | 228 | 7.0 | 12.0 | 0.00 | 0.00 | 0.00 | 71 | 1012.8 |
| 20260830184843 | 81 | 224 | 8.0 | 13.0 | 0.00 | 0.00 | 0.00 | 70 | 1012.9 |
| 20260830184342 | 81 | 246 | 5.0 | 9.0 | 0.00 | 0.00 | 0.00 | 71 | 1012.8 |
| 20260830183836 | 81 | 305 | 5.0 | 9.0 | 0.00 | 0.00 | 0.00 | 70 | 1012.5 |
| 20260830183331 | 81 | 245 | 6.0 | 9.0 | 0.00 | 0.00 | 0.00 | 69 | 1012.3 |
| 20260830182826 | 82 | 220 | 3.0 | 10.0 | 0.00 | 0.00 | 0.00 | 69 | 1012.4 |
| 20260830182322 | 82 | 296 | 4.0 | 9.0 | 0.00 | 0.00 | 0.00 | 70 | 1012.3 |
| 20260830181819 | 82 | 230 | 3.0 | 5.0 | 0.00 | 0.00 | 0.00 | 68 | 1012.1 |
| 20260830181314 | 81 | 286 | 3.0 | 7.0 | 0.00 | 0.00 | 0.00 | 69 | 1012.1 |
| 20260830180813 | 82 | 310 | 6.0 | 9.0 | 0.00 | 0.00 | 0.00 | 68 | 1012.1 |
| 20260830180307 | 81 | 240 | 5.0 | 9.0 | 0.00 | 0.00 | 0.00 | 68 | 1012.2 |
| 20260830175801 | 82 | 235 | 5.0 | 6.0 | 0.00 | 0.00 | 0.00 | 67 | 1012.2 |
| 20260830175256 | 82 | 218 | 5.0 | 8.0 | 0.00 | 0.00 | 0.00 | 68 | 1012.5 |
| 20260830174756 | 81 | 244 | 4.0 | 9.0 | 0.00 | 0.00 | 0.00 | 69 | 1012.5 |
| 20260830174252 | 82 | 301 | 4.0 | 6.0 | 0.00 | 0.00 | 0.00 | 68 | 1012.5 |
| 20260830173751 | 81 | 308 | 5.0 | 7.0 | 0.00 | 0.00 | 0.00 | 70 | 1012.4 |
| 20260830173247 | 81 | 298 | 5.0 | 8.0 | 0.00 | 0.00 | 0.00 | 70 | 1012.2 |
| 20260830172743 | 80 | 300 | 3.0 | 9.0 | 0.00 | 0.00 | 0.00 | 70 | 1012.2 |
| 20260830172240 | 80 | 230 | 3.0 | 11.0 | 0.00 | 0.00 | 0.00 | 69 | 1012.1 |
| 20260830171735 | 81 | 213 | 5.0 | 8.0 | 0.00 | 0.00 | 0.00 | 69 | 1012.1 |
| 20260830171230 | 80 | 215 | 7.0 | 11.0 | 0.00 | 0.00 | 0.00 | 69 | 1012.4 |
| 20260830170725 | 80 | 258 | 7.0 | 11.0 | 0.00 | 0.00 | 0.00 | 69 | 1012.3 |
| 20260830170224 | 81 | 247 | 4.0 | 7.0 | 0.00 | 0.00 | 0.00 | 69 | 1012.3 |
| 20260830165723 | 81 | 225 | 6.0 | 8.0 | 0.00 | 0.00 | 0.00 | 69 | 1012.3 |
| 20260830165219 | 80 | 199 | 3.0 | 8.0 | 0.00 | 0.00 | 0.00 | 70 | 1012.2 |
| 20260830164716 | 80 | 233 | 5.0 | 6.0 | 0.00 | 0.00 | 0.00 | 71 | 1012.5 |
| 20260830164211 | 80 | 198 | 7.0 | 8.0 | 0.00 | 0.00 | 0.00 | 72 | 1012.5 |
| 20260830163708 | 80 | 234 | 8.0 | 9.0 | 0.00 | 0.00 | 0.00 | 72 | 1012.2 |
| 20260830163203 | 80 | 199 | 5.0 | 10.0 | 0.00 | 0.00 | 0.00 | 72 | 1012.5 |
| 20260830162658 | 79 | 229 | 5.0 | 9.0 | 0.00 | 0.00 | 0.00 | 71 | 1012.5 |
| 20260830162153 | 79 | 210 | 4.0 | 15.0 | 0.00 | 0.00 | 0.00 | 71 | 1012.7 |
| 20260830161648 | 79 | 203 | 9.0 | 10.0 | 0.00 | 0.00 | 0.00 | 72 | 1012.8 |
| 20260830161143 | 79 | 217 | 9.0 | 9.0 | 0.00 | 0.00 | 0.00 | 73 | 1012.8 |
| 20260830160639 | 78 | 212 | 5.0 | 12.0 | 0.00 | 0.00 | 0.00 | 74 | 1012.8 |
| 20260830160133 | 79 | 199 | 4.0 | 12.0 | 0.00 | 0.00 | 0.00 | 72 | 1013.0 |
| 20260830155630 | 79 | 236 | 7.0 | 14.0 | 0.00 | 0.00 | 0.00 | 72 | 1013.0 |
| 20260830155125 | 78 | 227 | 6.0 | 13.0 | 0.00 | 0.00 | 0.00 | 73 | 1013.2 |
| 20260830154620 | 78 | 200 | 7.0 | 11.0 | 0.00 | 0.00 | 0.00 | 74 | 1013.1 |
| 20260830154116 | 78 | 198 | 8.0 | 14.0 | 0.00 | 0.00 | 0.00 | 74 | 1012.8 |
| 20260830153612 | 78 | 223 | 5.0 | 12.0 | 0.00 | 0.00 | 0.00 | 75 | 1013.0 |
| 20260830153107 | 77 | 223 | 6.0 | 15.0 | 0.00 | 0.00 | 0.00 | 74 | 1012.9 |
| 20260830152606 | 77 | 250 | 6.0 | 17.0 | 0.00 | 0.00 | 0.00 | 73 | 1012.9 |
| 20260830152105 | 78 | 245 | 7.0 | 10.0 | 0.00 | 0.00 | 0.00 | 73 | 1012.8 |
| 20260830151600 | 77 | 255 | 7.0 | 14.0 | 0.00 | 0.00 | 0.00 | 74 | 1013.1 |
| 20260830151055 | 77 | 203 | 5.0 | 11.0 | 0.00 | 0.00 | 0.00 | 74 | 1013.1 |
| 20260830150554 | 77 | 218 | 12.0 | 14.0 | 0.00 | 0.00 | 0.00 | 74 | 1013.1 |
| 20260830150049 | 77 | 220 | 10.0 | 17.0 | 0.00 | 0.00 | 0.00 | 75 | 1012.9 |
| 20260830145549 | 76 | 228 | 6.0 | 11.0 | 0.00 | 0.00 | 0.00 | 77 | 1013.0 |
| 20260830145044 | 76 | 225 | 10.0 | 11.0 | 0.00 | 0.00 | 0.00 | 77 | 1013.1 |
| 20260830144540 | 76 | 200 | 5.0 | 9.0 | 0.00 | 0.00 | 0.00 | 82 | 1012.9 |
| 20260830144036 | 76 | 218 | 5.0 | 10.0 | 0.00 | 0.00 | 0.00 | 79 | 1012.9 |
| 20260830143531 | 76 | 221 | 8.0 | 11.0 | 0.00 | 0.00 | 0.00 | 81 | 1013.0 |
| 20260830143029 | 75 | 176 | 7.0 | 9.0 | 0.00 | 0.00 | 0.00 | 82 | 1012.9 |
| 20260830142525 | 75 | 176 | 7.0 | 8.0 | 0.00 | 0.00 | 0.00 | 84 | 1012.9 |
| 20260830142020 | 74 | 198 | 3.0 | 8.0 | 0.00 | 0.00 | 0.00 | 85 | 1012.9 |
| 20260830141515 | 74 | 203 | 8.0 | 8.0 | 0.00 | 0.00 | 0.00 | 84 | 1013.0 |
| 20260830141015 | 73 | 199 | 4.0 | 8.0 | 0.00 | 0.00 | 0.00 | 85 | 1013.0 |
| 20260830140510 | 73 | 222 | 5.0 | 8.0 | 0.00 | 0.00 | 0.00 | 85 | 1013.0 |
| 20260830140005 | 74 | 181 | 4.0 | 8.0 | 0.00 | 0.00 | 0.00 | 85 | 1013.0 |
| 20260830135459 | 74 | 180 | 4.0 | 8.0 | 0.00 | 0.00 | 0.00 | 86 | 1013.0 |
| 20260830134955 | 73 | 212 | 4.0 | 7.0 | 0.00 | 0.00 | 0.00 | 86 | 1013.2 |
| 20260830134450 | 73 | 162 | 5.0 | 6.0 | 0.00 | 0.00 | 0.00 | 87 | 1013.2 |
| 20260830133946 | 72 | 160 | 4.0 | 6.0 | 0.00 | 0.00 | 0.00 | 88 | 1013.2 |
| 20260830133442 | 72 | 163 | 4.0 | 6.0 | 0.00 | 0.00 | 0.00 | 90 | 1013.0 |
| 20260830132936 | 71 | 191 | 3.0 | 5.0 | 0.00 | 0.00 | 0.00 | 91 | 1013.2 |
| 20260830132433 | 71 | 199 | 6.0 | 6.0 | 0.00 | 0.00 | 0.00 | 91 | 1013.2 |
| 20260830131932 | 71 | 199 | 4.0 | 5.0 | 0.00 | 0.00 | 0.00 | 91 | 1013.5 |
| 20260830131431 | 71 | 197 | 5.0 | 7.0 | 0.00 | 0.00 | 0.00 | 90 | 1013.2 |
| 20260830130926 | 71 | 194 | 6.0 | 7.0 | 0.00 | 0.00 | 0.00 | 90 | 1013.3 |
| 20260830130422 | 70 | 199 | 7.0 | 10.0 | 0.00 | 0.00 | 0.00 | 91 | 1013.4 |
| 20260830125920 | 70 | 183 | 5.0 | 10.0 | 0.00 | 0.00 | 0.00 | 92 | 1013.2 |
| 20260830125416 | 70 | 173 | 6.0 | 10.0 | 0.00 | 0.00 | 0.00 | 92 | 1013.0 |
| 20260830124914 | 69 | 166 | 10.0 | 10.0 | 0.00 | 0.00 | 0.00 | 93 | 1013.0 |
| 20260830124409 | 69 | 149 | 5.0 | 10.0 | 0.00 | 0.00 | 0.00 | 92 | 1013.4 |
| 20260830123906 | 69 | 158 | 7.0 | 8.0 | 0.00 | 0.00 | 0.00 | 93 | 1013.2 |
| 20260830123402 | 68 | 165 | 5.0 | 8.0 | 0.00 | 0.00 | 0.00 | 93 | 1013.4 |
| 20260830122900 | 68 | 175 | 6.0 | 9.0 | 0.00 | 0.00 | 0.00 | 94 | 1013.4 |
| 20260830122354 | 68 | 172 | 6.0 | 9.0 | 0.00 | 0.00 | 0.00 | 94 | 1013.2 |
| 20260830121849 | 67 | 170 | 7.0 | 8.0 | 0.00 | 0.00 | 0.00 | 94 | 1013.1 |
| 20260830121349 | 67 | 160 | 9.0 | 9.0 | 0.00 | 0.00 | 0.00 | 95 | 1013.3 |
| 20260830120844 | 67 | 177 | 7.0 | 9.0 | 0.00 | 0.00 | 0.00 | 95 | 1013.2 |
| 20260830120340 | 67 | 162 | 4.0 | 9.0 | 0.00 | 0.00 | 0.00 | 95 | 1013.1 |
| 20260830115836 | 67 | 166 | 7.0 | 9.0 | 0.00 | 0.00 | 0.00 | 95 | 1013.1 |
| 20260830115332 | 67 | 162 | 5.0 | 8.0 | 0.00 | 0.00 | 0.00 | 95 | 1012.7 |
| 20260830114828 | 67 | 185 | 6.0 | 9.0 | 0.00 | 0.00 | 0.00 | 95 | 1012.8 |
| 20260830114324 | 67 | 177 | 5.0 | 9.0 | 0.00 | 0.00 | 0.00 | 95 | 1013.0 |
| 20260830113818 | 67 | 162 | 6.0 | 8.0 | 0.00 | 0.00 | 0.00 | 95 | 1012.9 |
| 20260830113314 | 67 | 174 | 6.0 | 9.0 | 0.00 | 0.00 | 0.00 | 95 | 1012.9 |
| 20260830112809 | 67 | 166 | 7.0 | 9.0 | 0.00 | 0.00 | 0.00 | 95 | 1012.6 |
| 20260830112306 | 67 | 168 | 7.0 | 7.0 | 0.00 | 0.00 | 0.00 | 95 | 1012.9 |
| 20260830111801 | 66 | 177 | 5.0 | 6.0 | 0.00 | 0.00 | 0.00 | 95 | 1012.9 |
| 20260830111256 | 66 | 168 | 4.0 | 5.0 | 0.00 | 0.00 | 0.00 | 95 | 1012.9 |
| 20260830110756 | 67 | 180 | 3.0 | 5.0 | 0.00 | 0.00 | 0.00 | 95 | 1012.8 |
| 20260830110253 | 67 | 167 | 4.0 | 5.0 | 0.00 | 0.00 | 0.00 | 95 | 1012.7 |
| 20260830105752 | 67 | 160 | 4.0 | 4.0 | 0.00 | 0.00 | 0.00 | 95 | 1012.6 |
| 20260830105248 | 67 | 163 | 4.0 | 5.0 | 0.00 | 0.00 | 0.00 | 95 | 1012.6 |
| 20260830104744 | 67 | 166 | 4.0 | 6.0 | 0.00 | 0.00 | 0.00 | 95 | 1012.6 |
| 20260830104241 | 67 | 164 | 5.0 | 5.0 | 0.00 | 0.00 | 0.00 | 95 | 1012.7 |
| 20260830103740 | 67 | 158 | 3.0 | 3.0 | 0.00 | 0.00 | 0.00 | 95 | 1012.9 |
| 20260830103236 | 67 | 157 | 0.0 | 3.0 | 0.00 | 0.00 | 0.00 | 95 | 1012.8 |
| 20260830102733 | 68 | 161 | 3.0 | 5.0 | 0.00 | 0.00 | 0.00 | 95 | 1012.7 |
| 20260830102229 | 68 | 163 | 3.0 | 3.0 | 0.00 | 0.00 | 0.00 | 95 | 1012.7 |
| 20260830101720 | 68 | 166 | 3.0 | 4.0 | 0.00 | 0.00 | 0.00 | 95 | 1012.8 |
| 20260830101215 | 68 | 162 | 2.0 | 3.0 | 0.00 | 0.00 | 0.00 | 95 | 1012.8 |
| 20260830100714 | 68 | 166 | 3.0 | 4.0 | 0.00 | 0.00 | 0.00 | 95 | 1012.8 |
| 20260830100209 | 68 | 169 | 4.0 | 4.0 | 0.00 | 0.00 | 0.00 | 94 | 1013.0 |
| 20260830095708 | 68 | 162 | 5.0 | 5.0 | 0.00 | 0.00 | 0.00 | 94 | 1012.7 |
| 20260830095204 | 68 | 162 | 4.0 | 6.0 | 0.00 | 0.00 | 0.00 | 94 | 1013.0 |
| 20260830094700 | 68 | 163 | 3.0 | 4.0 | 0.00 | 0.00 | 0.00 | 94 | 1013.2 |
| 20260830094155 | 68 | 159 | 5.0 | 5.0 | 0.00 | 0.00 | 0.00 | 94 | 1013.2 |
| 20260830093650 | 68 | 172 | 4.0 | 5.0 | 0.00 | 0.00 | 0.00 | 94 | 1013.2 |
| 20260830093146 | 68 | 169 | 4.0 | 5.0 | 0.00 | 0.00 | 0.00 | 94 | 1013.4 |
| 20260830092640 | 68 | 174 | 4.0 | 6.0 | 0.00 | 0.00 | 0.00 | 94 | 1013.4 |
| 20260830092138 | 68 | 166 | 5.0 | 5.0 | 0.00 | 0.00 | 0.00 | 94 | 1013.6 |
| 20260830091638 | 68 | 175 | 3.0 | 5.0 | 0.00 | 0.00 | 0.00 | 94 | 1013.6 |
| 20260830091137 | 68 | 171 | 4.0 | 5.0 | 0.00 | 0.00 | 0.00 | 93 | 1013.4 |
| 20260830090632 | 68 | 169 | 5.0 | 5.0 | 0.00 | 0.00 | 0.00 | 93 | 1013.5 |
| 20260830090127 | 69 | 176 | 4.0 | 5.0 | 0.00 | 0.00 | 0.00 | 92 | 1013.6 |
| 20260830085626 | 69 | 163 | 4.0 | 5.0 | 0.00 | 0.00 | 0.00 | 92 | 1013.7 |
| 20260830085123 | 69 | 185 | 3.0 | 5.0 | 0.00 | 0.00 | 0.00 | 92 | 1013.7 |
| 20260830084618 | 69 | 156 | 4.0 | 5.0 | 0.00 | 0.00 | 0.00 | 91 | 1013.6 |
| 20260830084113 | 69 | 175 | 3.0 | 4.0 | 0.00 | 0.00 | 0.00 | 91 | 1013.4 |
| 20260830083609 | 69 | 158 | 4.0 | 5.0 | 0.00 | 0.00 | 0.00 | 90 | 1013.5 |
| 20260830083108 | 69 | 155 | 4.0 | 5.0 | 0.00 | 0.00 | 0.00 | 91 | 1013.4 |
| 20260830082603 | 69 | 157 | 4.0 | 5.0 | 0.00 | 0.00 | 0.00 | 91 | 1013.4 |
| 20260830082059 | 69 | 178 | 4.0 | 5.0 | 0.00 | 0.00 | 0.00 | 91 | 1013.5 |
| 20260830081555 | 69 | 162 | 6.0 | 6.0 | 0.00 | 0.00 | 0.00 | 92 | 1013.7 |
| 20260830081054 | 69 | 174 | 4.0 | 5.0 | 0.00 | 0.00 | 0.00 | 92 | 1013.4 |
| 20260830080548 | 68 | 188 | 4.0 | 5.0 | 0.00 | 0.00 | 0.00 | 92 | 1013.6 |